Time,TemperatureF,DewpointF,PressureIn,WindDirection,WindDirectionDegrees,WindSpeedMPH,WindSpeedGustMPH,Humidity,HourlyPrecipIn,Conditions,Clouds,dailyrainin,SoftwareType,DateUTC
2013-04-03 00:04:00,48.9,39.9,30.16,North,351,0.0,0.0,71,0.00,,,0.00,Wunderground v.1.15,2013-04-03 04:04:00,
2013-04-03 00:14:00,48.9,39.5,30.14,North,351,0.0,0.0,70,0.00,,,0.00,Wunderground v.1.15,2013-04-03 04:14:00,
2013-04-03 00:19:00,48.9,39.9,30.14,North,350,0.0,0.0,71,0.00,,,0.00,Wunderground v.1.15,2013-04-03 04:19:00,
2013-04-03 00:24:00,48.8,39.4,30.14,North,351,0.0,0.0,70,0.00,,,0.00,Wunderground v.1.15,2013-04-03 04:24:00,
2013-04-03 00:29:00,48.8,38.3,30.14,North,351,0.0,0.0,67,0.00,,,0.00,Wunderground v.1.15,2013-04-03 04:29:00,
2013-04-03 00:39:00,48.7,37.1,30.14,North,351,0.0,0.0,64,0.00,,,0.00,Wunderground v.1.15,2013-04-03 04:39:00,
2013-04-03 00:44:00,48.7,36.7,30.14,North,351,0.0,0.0,63,0.00,,,0.00,Wunderground v.1.15,2013-04-03 04:44:00,
2013-04-03 00:49:00,48.6,37.4,30.14,North,351,0.0,0.0,65,0.00,,,0.00,Wunderground v.1.15,2013-04-03 04:49:00,
2013-04-03 00:59:00,48.5,34.8,30.14,North,351,0.0,0.0,59,0.00,,,0.00,Wunderground v.1.15,2013-04-03 04:59:00,
2013-04-03 01:09:00,48.3,33.8,30.14,North,351,0.0,0.0,57,0.00,,,0.00,Wunderground v.1.15,2013-04-03 05:09:00,
2013-04-03 01:14:00,48.3,33.8,30.14,North,350,0.0,0.0,57,0.00,,,0.00,Wunderground v.1.15,2013-04-03 05:14:00,
2013-04-03 01:19:00,48.4,33.4,30.14,North,351,0.0,0.0,56,0.00,,,0.00,Wunderground v.1.15,2013-04-03 05:19:00,
2013-04-03 01:29:00,48.5,34.8,30.13,North,350,0.0,0.0,59,0.00,,,0.00,Wunderground v.1.15,2013-04-03 05:29:00,
2013-04-03 01:39:00,48.5,33.9,30.13,North,351,0.0,0.0,57,0.00,,,0.00,Wunderground v.1.15,2013-04-03 05:39:00,
2013-04-03 01:44:00,48.6,34.0,30.12,North,351,0.0,0.0,57,0.00,,,0.00,Wunderground v.1.15,2013-04-03 05:44:00,
2013-04-03 01:49:00,48.6,34.0,30.12,North,351,0.0,1.0,57,0.00,,,0.00,Wunderground v.1.15,2013-04-03 05:49:00,
2013-04-03 01:59:00,48.8,34.7,30.12,North,350,0.0,0.0,58,0.00,,,0.00,Wunderground v.1.15,2013-04-03 05:59:00,
2013-04-03 02:09:00,48.9,34.8,30.12,North,351,0.0,0.0,58,0.00,,,0.00,Wunderground v.1.15,2013-04-03 06:09:00,
2013-04-03 02:14:00,48.9,35.2,30.11,North,351,0.0,0.0,59,0.00,,,0.00,Wunderground v.1.15,2013-04-03 06:14:00,
2013-04-03 02:19:00,48.9,35.2,30.11,North,351,0.0,0.0,59,0.00,,,0.00,Wunderground v.1.15,2013-04-03 06:19:00,
2013-04-03 02:29:00,48.9,34.3,30.10,North,351,0.0,0.0,57,0.00,,,0.00,Wunderground v.1.15,2013-04-03 06:29:00,
2013-04-03 02:39:00,48.8,35.1,30.10,North,351,0.0,0.0,59,0.00,,,0.00,Wunderground v.1.15,2013-04-03 06:39:00,
2013-04-03 02:44:00,48.7,34.6,30.10,North,351,0.0,0.0,58,0.00,,,0.00,Wunderground v.1.15,2013-04-03 06:44:00,
2013-04-03 02:49:00,48.6,33.6,30.10,North,351,0.0,0.0,56,0.00,,,0.00,Wunderground v.1.15,2013-04-03 06:49:00,
2013-04-03 02:59:00,48.3,34.2,30.10,North,351,0.0,0.0,58,0.00,,,0.00,Wunderground v.1.15,2013-04-03 06:59:00,
2013-04-03 03:09:00,48.1,34.0,30.10,North,350,0.0,0.0,58,0.00,,,0.00,Wunderground v.1.15,2013-04-03 07:09:00,
2013-04-03 03:14:00,48.0,34.8,30.11,North,350,0.0,0.0,60,0.00,,,0.00,Wunderground v.1.15,2013-04-03 07:14:00,
2013-04-03 03:24:00,47.9,35.1,30.11,North,351,0.0,0.0,61,0.00,,,0.00,Wunderground v.1.15,2013-04-03 07:24:00,
2013-04-03 03:29:00,47.9,35.1,30.09,North,350,0.0,0.0,61,0.00,,,0.00,Wunderground v.1.15,2013-04-03 07:29:00,
2013-04-03 03:34:00,47.9,33.8,30.09,North,351,0.0,0.0,58,0.00,,,0.00,Wunderground v.1.15,2013-04-03 07:34:00,
2013-04-03 03:39:00,48.0,34.8,30.09,North,350,0.0,0.0,60,0.00,,,0.00,Wunderground v.1.15,2013-04-03 07:39:00,
2013-04-03 03:49:00,48.1,35.7,30.08,North,350,0.0,0.0,62,0.00,,,0.00,Wunderground v.1.15,2013-04-03 07:49:00,
2013-04-03 03:59:00,48.0,37.6,30.07,North,351,0.0,0.0,67,0.00,,,0.00,Wunderground v.1.15,2013-04-03 07:59:00,
2013-04-03 04:04:00,48.0,39.0,30.07,North,350,0.0,0.0,71,0.00,,,0.00,Wunderground v.1.15,2013-04-03 08:04:00,
2013-04-03 04:09:00,47.8,36.6,30.07,North,351,0.0,0.0,65,0.00,,,0.00,Wunderground v.1.15,2013-04-03 08:09:00,
2013-04-03 04:19:00,47.4,36.6,30.07,North,351,0.0,0.0,66,0.00,,,0.00,Wunderground v.1.15,2013-04-03 08:19:00,
2013-04-03 04:29:00,47.0,37.4,30.08,North,351,0.0,0.0,69,0.00,,,0.00,Wunderground v.1.15,2013-04-03 08:29:00,
2013-04-03 04:39:00,46.2,36.6,30.08,North,350,0.0,0.0,69,0.00,,,0.00,Wunderground v.1.15,2013-04-03 08:39:00,
2013-04-03 04:49:00,45.6,36.7,30.08,North,350,0.0,0.0,71,0.00,,,0.00,Wunderground v.1.15,2013-04-03 08:49:00,
2013-04-03 04:59:00,45.0,37.2,30.08,North,350,0.0,0.0,74,0.00,,,0.00,Wunderground v.1.15,2013-04-03 08:59:00,
2013-04-03 05:09:00,44.4,38.6,30.08,North,351,0.0,0.0,80,0.00,,,0.00,Wunderground v.1.15,2013-04-03 09:09:00,
2013-04-03 05:14:00,44.2,38.1,30.10,North,351,0.0,0.0,79,0.00,,,0.00,Wunderground v.1.15,2013-04-03 09:14:00,
2013-04-03 05:24:00,43.7,38.3,30.10,North,350,0.0,0.0,81,0.00,,,0.00,Wunderground v.1.15,2013-04-03 09:24:00,
2013-04-03 05:29:00,43.4,37.6,30.10,North,351,0.0,0.0,80,0.00,,,0.00,Wunderground v.1.15,2013-04-03 09:29:00,
2013-04-03 05:34:00,43.1,37.7,30.10,North,350,0.0,0.0,81,0.00,,,0.00,Wunderground v.1.15,2013-04-03 09:34:00,
2013-04-03 05:39:00,42.8,37.4,30.10,North,351,0.0,0.0,81,0.00,,,0.00,Wunderground v.1.15,2013-04-03 09:39:00,
2013-04-03 05:49:00,42.4,37.3,30.11,North,350,0.0,0.0,82,0.00,,,0.00,Wunderground v.1.15,2013-04-03 09:49:00,
2013-04-03 05:59:00,42.0,36.6,30.11,North,350,0.0,0.0,81,0.00,,,0.00,Wunderground v.1.15,2013-04-03 09:59:00,
2013-04-03 06:04:00,41.8,36.7,30.11,North,351,0.0,0.0,82,0.00,,,0.00,Wunderground v.1.15,2013-04-03 10:04:00,
2013-04-03 06:09:00,41.5,36.7,30.11,North,351,0.0,0.0,83,0.00,,,0.00,Wunderground v.1.15,2013-04-03 10:09:00,
2013-04-03 06:19:00,41.3,36.5,30.13,North,351,0.0,0.0,83,0.00,,,0.00,Wunderground v.1.15,2013-04-03 10:19:00,
2013-04-03 06:29:00,41.1,37.2,30.14,North,351,0.0,0.0,86,0.00,,,0.00,Wunderground v.1.15,2013-04-03 10:29:00,
2013-04-03 06:34:00,41.0,36.8,30.14,North,350,0.0,0.0,85,0.00,,,0.00,Wunderground v.1.15,2013-04-03 10:34:00,
2013-04-03 06:39:00,41.0,36.8,30.14,North,350,0.0,0.0,85,0.00,,,0.00,Wunderground v.1.15,2013-04-03 10:39:00,
2013-04-03 06:49:00,41.0,38.6,30.15,North,350,0.0,0.0,91,0.00,,,0.00,Wunderground v.1.15,2013-04-03 10:49:00,
2013-04-03 06:59:00,41.2,38.2,30.16,North,350,0.0,0.0,89,0.00,,,0.00,Wunderground v.1.15,2013-04-03 10:59:00,
2013-04-03 07:04:00,41.4,38.4,30.16,North,351,0.0,0.0,89,0.00,,,0.00,Wunderground v.1.15,2013-04-03 11:04:00,
2013-04-03 07:09:00,41.5,37.9,30.16,North,350,0.0,0.0,87,0.00,,,0.00,Wunderground v.1.15,2013-04-03 11:09:00,
2013-04-03 07:19:00,41.6,37.7,30.17,North,351,0.0,0.0,86,0.00,,,0.00,Wunderground v.1.15,2013-04-03 11:19:00,
2013-04-03 07:29:00,41.8,37.9,30.17,North,351,0.0,0.0,86,0.00,,,0.00,Wunderground v.1.15,2013-04-03 11:29:00,
2013-04-03 07:34:00,42.0,37.5,30.17,North,351,0.0,0.0,84,0.00,,,0.00,Wunderground v.1.15,2013-04-03 11:34:00,
2013-04-03 07:39:00,42.1,37.9,30.17,North,351,0.0,0.0,85,0.00,,,0.00,Wunderground v.1.15,2013-04-03 11:39:00,
2013-04-03 07:49:00,42.5,39.2,30.17,North,351,0.0,0.0,88,0.00,,,0.00,Wunderground v.1.15,2013-04-03 11:49:00,
2013-04-03 07:59:00,42.8,39.5,30.17,North,350,0.0,0.0,88,0.00,,,0.00,Wunderground v.1.15,2013-04-03 11:59:00,
2013-04-03 08:04:00,43.0,37.6,30.17,North,351,0.0,0.0,81,0.00,,,0.00,Wunderground v.1.15,2013-04-03 12:04:00,
2013-04-03 08:09:00,43.4,37.3,30.17,North,351,0.0,0.0,79,0.00,,,0.00,Wunderground v.1.15,2013-04-03 12:09:00,
2013-04-03 08:19:00,44.1,37.3,30.17,North,351,0.0,0.0,77,0.00,,,0.00,Wunderground v.1.15,2013-04-03 12:19:00,
2013-04-03 08:29:00,44.8,37.4,30.17,North,351,0.0,0.0,75,0.00,,,0.00,Wunderground v.1.15,2013-04-03 12:29:00,
2013-04-03 08:34:00,45.0,37.6,30.17,North,351,0.0,0.0,75,0.00,,,0.00,Wunderground v.1.15,2013-04-03 12:34:00,
2013-04-03 08:39:00,45.4,37.2,30.17,North,351,0.0,0.0,73,0.00,,,0.00,Wunderground v.1.15,2013-04-03 12:39:00,
2013-04-03 08:49:00,46.1,37.2,30.18,North,350,0.0,0.0,71,0.00,,,0.00,Wunderground v.1.15,2013-04-03 12:49:00,
2013-04-03 08:59:00,47.0,37.7,30.18,North,351,0.0,0.0,70,0.00,,,0.00,Wunderground v.1.15,2013-04-03 12:59:00,
2013-04-03 09:09:00,47.8,38.1,30.18,North,351,0.0,0.0,69,0.00,,,0.00,Wunderground v.1.15,2013-04-03 13:09:00,
2013-04-03 09:14:00,48.3,37.8,30.19,North,351,0.0,0.0,67,0.00,,,0.00,Wunderground v.1.15,2013-04-03 13:14:00,
2013-04-03 09:19:00,48.9,39.2,30.19,North,351,0.0,0.0,69,0.00,,,0.00,Wunderground v.1.15,2013-04-03 13:19:00,
2013-04-03 09:29:00,49.8,38.1,30.19,North,355,0.0,0.0,64,0.00,,,0.00,Wunderground v.1.15,2013-04-03 13:29:00,
2013-04-03 09:34:00,50.3,40.1,30.19,North,350,0.0,0.0,68,0.00,,,0.00,Wunderground v.1.15,2013-04-03 13:34:00,
2013-04-03 09:39:00,50.8,39.1,30.19,North,351,0.0,0.0,64,0.00,,,0.00,Wunderground v.1.15,2013-04-03 13:39:00,
2013-04-03 09:49:00,51.8,36.6,30.19,SSE,158,0.0,0.0,56,0.00,,,0.00,Wunderground v.1.15,2013-04-03 13:49:00,
2013-04-03 09:59:00,52.5,36.8,30.19,SSE,158,0.0,0.0,55,0.00,,,0.00,Wunderground v.1.15,2013-04-03 13:59:00,
2013-04-03 10:04:00,52.9,38.1,30.19,ENE,65,0.0,0.0,57,0.00,,,0.00,Wunderground v.1.15,2013-04-03 14:04:00,
2013-04-03 10:09:00,53.2,37.0,30.19,ENE,64,0.0,0.0,54,0.00,,,0.00,Wunderground v.1.15,2013-04-03 14:09:00,
2013-04-03 10:19:00,53.7,36.5,30.18,SSE,155,0.0,0.0,52,0.00,,,0.00,Wunderground v.1.15,2013-04-03 14:19:00,
2013-04-03 10:29:00,53.9,35.7,30.18,SSE,156,1.0,1.0,50,0.00,,,0.00,Wunderground v.1.15,2013-04-03 14:29:00,
2013-04-03 10:34:00,54.1,35.3,30.19,SSE,155,1.0,1.0,49,0.00,,,0.00,Wunderground v.1.15,2013-04-03 14:34:00,
2013-04-03 10:39:00,54.3,36.0,30.19,SSE,155,0.0,0.0,50,0.00,,,0.00,Wunderground v.1.15,2013-04-03 14:39:00,
2013-04-03 10:49:00,54.7,35.9,30.20,NNW,330,0.0,0.0,49,0.00,,,0.00,Wunderground v.1.15,2013-04-03 14:49:00,
2013-04-03 10:59:00,55.4,36.5,30.20,SSE,165,0.0,0.0,49,0.00,,,0.00,Wunderground v.1.15,2013-04-03 14:59:00,
2013-04-03 11:04:00,56.0,35.5,30.19,SSE,165,0.0,0.0,46,0.00,,,0.00,Wunderground v.1.15,2013-04-03 15:04:00,
2013-04-03 11:14:00,56.6,36.6,30.19,SSE,155,0.0,2.0,47,0.00,,,0.00,Wunderground v.1.15,2013-04-03 15:14:00,
2013-04-03 11:19:00,56.3,36.8,30.19,SSE,161,1.0,1.0,48,0.00,,,0.00,Wunderground v.1.15,2013-04-03 15:19:00,
2013-04-03 11:29:00,56.5,36.0,30.19,SSE,161,0.0,0.0,46,0.00,,,0.00,Wunderground v.1.15,2013-04-03 15:29:00,
2013-04-03 11:34:00,57.0,36.4,30.19,SSE,160,0.0,0.0,46,0.00,,,0.00,Wunderground v.1.15,2013-04-03 15:34:00,
2013-04-03 11:39:00,57.5,36.3,30.19,NE,47,0.0,2.0,45,0.00,,,0.00,Wunderground v.1.15,2013-04-03 15:39:00,
2013-04-03 11:49:00,58.3,37.0,30.19,SSE,163,1.0,1.0,45,0.00,,,0.00,Wunderground v.1.15,2013-04-03 15:49:00,
2013-04-03 11:59:00,59.0,37.7,30.19,SSE,167,1.0,2.0,45,0.00,,,0.00,Wunderground v.1.15,2013-04-03 15:59:00,
2013-04-03 12:04:00,59.2,37.9,30.19,SSE,167,1.0,2.0,45,0.00,,,0.00,Wunderground v.1.15,2013-04-03 16:04:00,
2013-04-03 12:09:00,59.9,38.5,30.19,East,86,0.0,0.0,45,0.00,,,0.00,Wunderground v.1.15,2013-04-03 16:09:00,
2013-04-03 12:19:00,60.4,38.4,30.19,SSE,159,0.0,0.0,44,0.00,,,0.00,Wunderground v.1.15,2013-04-03 16:19:00,
2013-04-03 12:29:00,59.7,37.7,30.19,SSE,163,0.0,1.0,44,0.00,,,0.00,Wunderground v.1.15,2013-04-03 16:29:00,
2013-04-03 12:34:00,59.6,37.6,30.19,SSE,163,0.0,1.0,44,0.00,,,0.00,Wunderground v.1.15,2013-04-03 16:34:00,
2013-04-03 12:39:00,59.4,37.5,30.19,SSE,163,0.0,0.0,44,0.00,,,0.00,Wunderground v.1.15,2013-04-03 16:39:00,
2013-04-03 12:49:00,59.4,40.7,30.19,SSE,160,0.0,0.0,50,0.00,,,0.00,Wunderground v.1.15,2013-04-03 16:49:00,
2013-04-03 12:59:00,59.7,40.0,30.17,ENE,78,0.0,0.0,48,0.00,,,0.00,Wunderground v.1.15,2013-04-03 16:59:00,
2013-04-03 13:09:00,60.1,38.7,30.17,ESE,109,0.0,0.0,45,0.00,,,0.00,Wunderground v.1.15,2013-04-03 17:09:00,
2013-04-03 13:14:00,60.3,37.7,30.17,SE,126,0.0,0.0,43,0.00,,,0.00,Wunderground v.1.15,2013-04-03 17:14:00,
2013-04-03 13:24:00,60.3,38.3,30.17,North,5,0.0,0.0,44,0.00,,,0.00,Wunderground v.1.15,2013-04-03 17:24:00,
2013-04-03 13:29:00,60.4,40.6,30.17,East,87,0.0,0.0,48,0.00,,,0.00,Wunderground v.1.15,2013-04-03 17:29:00,
2013-04-03 13:34:00,60.5,39.0,30.17,East,87,0.0,0.0,45,0.00,,,0.00,Wunderground v.1.15,2013-04-03 17:34:00,
2013-04-03 13:44:00,60.5,38.5,30.17,WNW,297,0.0,1.0,44,0.00,,,0.00,Wunderground v.1.15,2013-04-03 17:44:00,
2013-04-03 13:49:00,60.4,37.8,30.17,NW,325,0.0,0.0,43,0.00,,,0.00,Wunderground v.1.15,2013-04-03 17:49:00,
2013-04-03 13:54:00,60.3,38.9,30.17,NE,45,0.0,0.0,45,0.00,,,0.00,Wunderground v.1.15,2013-04-03 17:54:00,
2013-04-03 13:59:00,60.1,37.5,30.17,SSE,148,0.0,1.0,43,0.00,,,0.00,Wunderground v.1.15,2013-04-03 17:59:00,
2013-04-03 14:09:00,59.7,41.5,30.17,ENE,76,0.0,0.0,51,0.00,,,0.00,Wunderground v.1.15,2013-04-03 18:09:00,
2013-04-03 14:19:00,59.7,38.9,30.17,NE,52,0.0,0.0,46,0.00,,,0.00,Wunderground v.1.15,2013-04-03 18:19:00,
2013-04-03 14:24:00,59.8,38.4,30.17,NE,52,0.0,0.0,45,0.00,,,0.00,Wunderground v.1.15,2013-04-03 18:24:00,
2013-04-03 14:34:00,59.8,39.5,30.17,NE,56,0.0,1.0,47,0.00,,,0.00,Wunderground v.1.15,2013-04-03 18:34:00,
2013-04-03 14:39:00,59.7,38.9,30.17,NNW,341,0.0,0.0,46,0.00,,,0.00,Wunderground v.1.15,2013-04-03 18:39:00,
2013-04-03 14:49:00,59.6,37.6,30.17,NE,49,0.0,0.0,44,0.00,,,0.00,Wunderground v.1.15,2013-04-03 18:49:00,
2013-04-03 14:59:00,59.2,39.5,30.17,NE,40,0.0,0.0,48,0.00,,,0.00,Wunderground v.1.15,2013-04-03 18:59:00,
2013-04-03 15:04:00,59.0,38.8,30.17,NE,40,0.0,0.0,47,0.00,,,0.00,Wunderground v.1.15,2013-04-03 19:04:00,
2013-04-03 15:09:00,59.0,38.2,30.17,NE,40,0.0,0.0,46,0.00,,,0.00,Wunderground v.1.15,2013-04-03 19:09:00,
2013-04-03 15:19:00,59.0,38.2,30.17,NE,40,0.0,0.0,46,0.00,,,0.00,Wunderground v.1.15,2013-04-03 19:19:00,
2013-04-03 15:29:00,59.0,40.4,30.17,NE,40,0.0,0.0,50,0.00,,,0.00,Wunderground v.1.15,2013-04-03 19:29:00,
2013-04-03 15:39:00,59.0,39.3,30.17,NE,40,0.0,0.0,48,0.00,,,0.00,Wunderground v.1.15,2013-04-03 19:39:00,
2013-04-03 15:44:00,59.0,39.9,30.17,NE,40,0.0,0.0,49,0.00,,,0.00,Wunderground v.1.15,2013-04-03 19:44:00,
2013-04-03 15:49:00,59.0,41.4,30.17,NE,42,0.0,0.0,52,0.00,,,0.00,Wunderground v.1.15,2013-04-03 19:49:00,
2013-04-03 15:59:00,59.0,39.9,30.16,NE,42,0.0,0.0,49,0.00,,,0.00,Wunderground v.1.15,2013-04-03 19:59:00,
2013-04-03 16:09:00,59.0,40.4,30.16,NE,42,0.0,0.0,50,0.00,,,0.00,Wunderground v.1.15,2013-04-03 20:09:00,
2013-04-03 16:14:00,58.9,39.2,30.15,NE,42,0.0,0.0,48,0.00,,,0.00,Wunderground v.1.15,2013-04-03 20:14:00,
2013-04-03 16:19:00,58.9,39.8,30.15,NE,42,0.0,0.0,49,0.00,,,0.00,Wunderground v.1.15,2013-04-03 20:19:00,
2013-04-03 16:29:00,59.0,38.2,30.16,NE,46,0.0,0.0,46,0.00,,,0.00,Wunderground v.1.15,2013-04-03 20:29:00,
2013-04-03 16:39:00,58.9,39.2,30.16,NE,46,0.0,0.0,48,0.00,,,0.00,Wunderground v.1.15,2013-04-03 20:39:00,
2013-04-03 16:44:00,58.8,38.1,30.15,NE,46,0.0,0.0,46,0.00,,,0.00,Wunderground v.1.15,2013-04-03 20:44:00,
2013-04-03 16:54:00,58.6,38.4,30.15,NE,46,0.0,0.0,47,0.00,,,0.00,Wunderground v.1.15,2013-04-03 20:54:00,
2013-04-03 16:59:00,58.5,38.3,30.15,NE,46,0.0,0.0,47,0.00,,,0.00,Wunderground v.1.15,2013-04-03 20:59:00,
2013-04-03 17:04:00,58.5,39.4,30.15,NE,46,0.0,0.0,49,0.00,,,0.00,Wunderground v.1.15,2013-04-03 21:04:00,
2013-04-03 17:10:00,58.4,39.3,30.15,NE,46,0.0,0.0,49,0.00,,,0.00,Wunderground v.1.15,2013-04-03 21:10:00,
2013-04-03 17:19:00,58.4,39.8,30.14,NE,46,0.0,0.0,50,0.00,,,0.00,Wunderground v.1.15,2013-04-03 21:19:00,
2013-04-03 17:29:00,58.4,38.2,30.14,NE,37,0.0,0.0,47,0.00,,,0.00,Wunderground v.1.15,2013-04-03 21:29:00,